When you browse on this site, cookies collect data to enhance your experience and personalize the content and advertising you see.
Visit our Privacy Policy to learn more. By continuing to use the site, you agree to this use of cookies and data.
  • In Sweden
  • List of Countries
  • For 7 days
  • Water Temperature
  • Weather Map
  • Weather Widgets
  • user-avatar
    Login

    Hourly Weather Belém

    Today, 16 November, Saturday

    Time Temperature Precipitation Wind Pressure Humidity
    00:00 +26°C° 0 mm 3 mps 755 mmHg 86%
    01:00 +26°C° 0 mm 3 mps 754 mmHg 88%
    02:00 +26°C° 0 mm 3 mps 754 mmHg 89%
    03:00 +26°C° 0 mm 3 mps 754 mmHg 91%
    04:00 +25°C° 0 mm 3 mps 754 mmHg 92%
    05:00 +25°C° 0 mm 3 mps 754 mmHg 93%
    06:00 +25°C° 0 mm 2 mps 755 mmHg 93%
    07:00 +27°C° 0 mm 3 mps 755 mmHg 84%
    08:00 +29°C° 0 mm 3 mps 755 mmHg 75%
    09:00 +31°C° 0 mm 3 mps 756 mmHg 66%
    10:00 +34°C° 0 mm 3 mps 755 mmHg 59%
    11:00 +36°C° 0 mm 3 mps 755 mmHg 52%
    12:00 +37°C° 0 mm 3 mps 755 mmHg 45%
    13:00 +36°C° 0.2 mm 4 mps 754 mmHg 51%
    14:00 +35°C° 0.2 mm 4 mps 753 mmHg 57%
    15:00 +34°C° 0.2 mm 5 mps 752 mmHg 62%
    16:00 +33°C° 0.3 mm 5 mps 752 mmHg 68%
    17:00 +32°C° 0.3 mm 5 mps 752 mmHg 73%
    18:00 +29°C° 0.3 mm 5 mps 753 mmHg 78%
    19:00 +29°C° 0.1 mm 5 mps 753 mmHg 80%
    20:00 +28°C° 0.1 mm 5 mps 754 mmHg 82%
    21:00 +28°C° 0.1 mm 5 mps 754 mmHg 84%
    22:00 +28°C° 0 mm 4 mps 754 mmHg 85%
    23:00 +27°C° 0 mm 4 mps 754 mmHg 85%

    Tomorrow, 17 November, Sunday

    Time Temperature Precipitation Wind Pressure Humidity
    00:00 +27°C° 0 mm 4 mps 754 mmHg 86%
    01:00 +27°C° 0 mm 3 mps 754 mmHg 87%
    02:00 +26°C° 0 mm 3 mps 753 mmHg 89%
    03:00 +26°C° 0 mm 3 mps 753 mmHg 90%
    04:00 +26°C° 0 mm 3 mps 753 mmHg 91%
    05:00 +26°C° 0 mm 3 mps 754 mmHg 92%
    06:00 +26°C° 0 mm 3 mps 754 mmHg 93%
    07:00 +27°C° 0 mm 3 mps 755 mmHg 85%
    08:00 +29°C° 0 mm 3 mps 755 mmHg 77%
    09:00 +31°C° 0 mm 3 mps 756 mmHg 68%
    10:00 +33°C° 0 mm 3 mps 755 mmHg 62%
    11:00 +35°C° 0 mm 4 mps 755 mmHg 56%
    12:00 +37°C° 0 mm 4 mps 755 mmHg 49%
    13:00 +36°C° 0.6 mm 4 mps 754 mmHg 55%
    14:00 +34°C° 0.6 mm 5 mps 753 mmHg 61%
    15:00 +33°C° 0.6 mm 6 mps 752 mmHg 67%
    16:00 +32°C° 0.9 mm 5 mps 752 mmHg 73%
    17:00 +29°C° 0.9 mm 5 mps 753 mmHg 79%
    18:00 +28°C° 0.9 mm 5 mps 753 mmHg 85%
    19:00 +28°C° 0.1 mm 4 mps 753 mmHg 85%
    20:00 +27°C° 0.1 mm 4 mps 754 mmHg 86%
    21:00 +27°C° 0.1 mm 4 mps 755 mmHg 86%
    22:00 +27°C° 0 mm 3 mps 755 mmHg 87%
    23:00 +26°C° 0 mm 3 mps 755 mmHg 88%

    Day after tomorrow, 18 November, Monday

    Time Temperature Precipitation Wind Pressure Humidity
    00:00 +26°C° 0 mm 3 mps 755 mmHg 89%
    01:00 +26°C° 0 mm 3 mps 755 mmHg 90%
    02:00 +26°C° 0 mm 3 mps 755 mmHg 91%
    03:00 +26°C° 0 mm 3 mps 754 mmHg 92%
    04:00 +26°C° 0 mm 3 mps 754 mmHg 92%
    05:00 +26°C° 0 mm 3 mps 755 mmHg 92%
    06:00 +26°C° 0 mm 3 mps 755 mmHg 92%
    07:00 +27°C° 0 mm 3 mps 755 mmHg 83%
    08:00 +29°C° 0 mm 3 mps 756 mmHg 74%
    09:00 +32°C° 0 mm 4 mps 756 mmHg 65%
    10:00 +34°C° 0 mm 4 mps 756 mmHg 59%
    11:00 +35°C° 0 mm 4 mps 756 mmHg 53%
    12:00 +37°C° 0 mm 4 mps 755 mmHg 47%
    13:00 +36°C° 0.1 mm 4 mps 755 mmHg 52%
    14:00 +35°C° 0.1 mm 4 mps 754 mmHg 57%
    15:00 +34°C° 0.1 mm 5 mps 753 mmHg 63%
    16:00 +33°C° 0.3 mm 5 mps 753 mmHg 68%
    17:00 +32°C° 0.3 mm 5 mps 753 mmHg 73%
    18:00 +29°C° 0.3 mm 4 mps 753 mmHg 78%
    19:00 +29°C° 0 mm 4 mps 754 mmHg 79%
    20:00 +28°C° 0 mm 4 mps 755 mmHg 80%
    21:00 +28°C° 0 mm 4 mps 755 mmHg 80%
    22:00 +27°C° 0 mm 3 mps 755 mmHg 82%
    23:00 +27°C° 0 mm 3 mps 755 mmHg 83%

    19 November, Tuesday

    Time Temperature Precipitation Wind Pressure Humidity
    00:00 +26°C° 0 mm 3 mps 755 mmHg 85%
    01:00 +26°C° 0 mm 3 mps 755 mmHg 87%
    02:00 +26°C° 0 mm 3 mps 755 mmHg 89%
    03:00 +25°C° 0 mm 3 mps 755 mmHg 91%
    04:00 +25°C° 0 mm 3 mps 755 mmHg 92%
    05:00 +25°C° 0 mm 3 mps 756 mmHg 93%
    06:00 +25°C° 0 mm 2 mps 756 mmHg 94%
    07:00 +27°C° 0 mm 3 mps 756 mmHg 86%
    08:00 +29°C° 0 mm 3 mps 757 mmHg 77%
    09:00 +31°C° 0 mm 3 mps 757 mmHg 68%
    10:00 +34°C° 0 mm 3 mps 757 mmHg 61%
    11:00 +35°C° 0 mm 3 mps 756 mmHg 54%
    12:00 +37°C° 0 mm 3 mps 756 mmHg 47%
    13:00 +36°C° 0.1 mm 3 mps 755 mmHg 50%
    14:00 +35°C° 0.1 mm 4 mps 754 mmHg 54%
    15:00 +35°C° 0.1 mm 5 mps 753 mmHg 58%
    16:00 +33°C° 0.1 mm 5 mps 754 mmHg 64%
    17:00 +32°C° 0.1 mm 5 mps 754 mmHg 69%
    18:00 +30°C° 0.1 mm 5 mps 754 mmHg 75%
    19:00 +29°C° 0.2 mm 4 mps 755 mmHg 77%
    20:00 +28°C° 0.2 mm 4 mps 755 mmHg 79%
    21:00 +28°C° 0.2 mm 3 mps 756 mmHg 81%
    22:00 +27°C° 0 mm 3 mps 756 mmHg 83%
    23:00 +27°C° 0 mm 3 mps 756 mmHg 84%

    20 November, Wednesday

    Time Temperature Precipitation Wind Pressure Humidity
    00:00 +27°C° 0 mm 3 mps 756 mmHg 86%
    01:00 +26°C° 0 mm 2 mps 756 mmHg 87%
    02:00 +26°C° 0 mm 2 mps 756 mmHg 88%
    03:00 +26°C° 0 mm 2 mps 755 mmHg 89%
    04:00 +26°C° 0 mm 2 mps 756 mmHg 90%
    05:00 +26°C° 0 mm 2 mps 756 mmHg 91%
    06:00 +25°C° 0 mm 2 mps 756 mmHg 92%
    07:00 +28°C° 0 mm 2 mps 757 mmHg 82%
    08:00 +30°C° 0 mm 2 mps 757 mmHg 72%
    09:00 +32°C° 0 mm 2 mps 757 mmHg 63%
    10:00 +34°C° 0 mm 2 mps 757 mmHg 57%
    11:00 +36°C° 0 mm 2 mps 756 mmHg 50%
    12:00 +37°C° 0 mm 3 mps 756 mmHg 44%
    13:00 +36°C° 0.4 mm 3 mps 755 mmHg 53%
    14:00 +34°C° 0.4 mm 4 mps 754 mmHg 63%
    15:00 +32°C° 0.4 mm 4 mps 754 mmHg 72%
    16:00 +30°C° 0.3 mm 4 mps 754 mmHg 74%
    17:00 +30°C° 0.3 mm 4 mps 754 mmHg 76%
    18:00 +29°C° 0.3 mm 4 mps 754 mmHg 79%
    19:00 +28°C° 0.6 mm 4 mps 754 mmHg 82%
    20:00 +28°C° 0.6 mm 4 mps 755 mmHg 85%
    21:00 +27°C° 0.6 mm 3 mps 756 mmHg 88%
    22:00 +27°C° 0.5 mm 3 mps 756 mmHg 89%
    23:00 +27°C° 0.5 mm 3 mps 756 mmHg 91%

    21 November, Thursday

    Time Temperature Precipitation Wind Pressure Humidity
    00:00 +26°C° 0.5 mm 2 mps 756 mmHg 92%
    01:00 +26°C° 0.3 mm 2 mps 755 mmHg 92%
    02:00 +26°C° 0.3 mm 2 mps 755 mmHg 93%
    03:00 +26°C° 0.3 mm 2 mps 755 mmHg 93%
    04:00 +26°C° 0 mm 2 mps 755 mmHg 94%
    05:00 +25°C° 0 mm 2 mps 755 mmHg 94%
    06:00 +25°C° 0 mm 2 mps 756 mmHg 95%
    07:00 +27°C° 0 mm 2 mps 756 mmHg 87%
    08:00 +29°C° 0 mm 2 mps 756 mmHg 79%
    09:00 +31°C° 0 mm 2 mps 757 mmHg 71%
    10:00 +34°C° 0 mm 2 mps 756 mmHg 63%
    11:00 +36°C° 0 mm 2 mps 756 mmHg 55%
    12:00 +37°C° 0 mm 2 mps 756 mmHg 47%
    13:00 +36°C° 0.6 mm 3 mps 755 mmHg 53%
    14:00 +35°C° 0.6 mm 3 mps 754 mmHg 60%
    15:00 +34°C° 0.6 mm 3 mps 754 mmHg 66%
    16:00 +32°C° 0.5 mm 4 mps 754 mmHg 72%
    17:00 +30°C° 0.5 mm 4 mps 754 mmHg 77%
    18:00 +29°C° 0.5 mm 4 mps 754 mmHg 83%
    19:00 +28°C° 0.1 mm 4 mps 754 mmHg 84%
    20:00 +28°C° 0.1 mm 4 mps 755 mmHg 84%
    21:00 +27°C° 0.1 mm 4 mps 755 mmHg 85%
    22:00 +27°C° 0.4 mm 4 mps 755 mmHg 88%
    23:00 +26°C° 0.4 mm 3 mps 755 mmHg 90%
    Show more